FW6870 Weather Reports


Display with metric or nautical units.
time (UTC)temp
F
wind
direction
speed
MPH
gust
MPH
rain 1hr
in
rain 24hr
in
rain mn
in
humidity
%
barometer
mb
20260504200038 75 246 4.0 12.0 0.00 0.00 0.00 39 1015.1
20260504194528 74 221 8.0 14.0 0.00 0.00 0.00 38 1015.3
20260504193028 74 185 4.0 12.0 0.00 0.00 0.00 43 1015.4
20260504191527 74 196 4.0 14.0 0.00 0.00 0.00 42 1015.7
20260504190028 74 234 5.0 10.0 0.00 0.00 0.00 42 1015.9
20260504184535 73 227 6.0 13.0 0.00 0.00 0.00 41 1016.1
20260504183035 73 173 5.0 10.0 0.00 0.00 0.00 40 1016.4
20260504181531 72 0 3.0 10.0 0.00 0.00 0.00 41 1016.6
20260504180028 72 155 4.0 9.0 0.00 0.00 0.00 42 1016.7
20260504174530 71 164 4.0 7.0 0.00 0.00 0.00 44 1016.9
20260504173029 72 156 1.0 4.0 0.00 0.00 0.00 41 1017.2
20260504171528 71 193 3.0 7.0 0.00 0.00 0.00 41 1017.1
20260504081529 51 261 7.0 10.0 0.00 0.00 0.00 71 1017.5
20260504044529 55 249 7.0 11.0 0.00 0.00 0.00 61 1017.8
20260504043033 55 248 7.0 11.0 0.00 0.00 0.00 60 1017.8
20260504041532 55 262 8.0 11.0 0.00 0.00 0.00 60 1018.1
20260504040028 55 244 7.0 11.0 0.00 0.00 0.00 60 1018.0
20260504034530 56 250 6.0 11.0 0.00 0.00 0.00 59 1018.1
20260504033031 56 261 7.0 10.0 0.00 0.00 0.00 57 1018.1
20260504031528 57 263 7.0 10.0 0.00 0.00 0.00 55 1018.0
20260504030036 58 265 7.0 10.0 0.00 0.00 0.00 54 1018.0
20260504024530 58 273 7.0 12.0 0.00 0.00 0.00 53 1017.8
20260504023029 59 271 8.0 12.0 0.00 0.00 0.00 52 1017.7
20260504021535 60 249 7.0 13.0 0.00 0.00 0.00 51 1017.6
20260504020035 60 258 8.0 13.0 0.00 0.00 0.00 50 1017.5
20260504014530 60 261 8.0 15.0 0.00 0.00 0.00 50 1017.0
20260504013034 61 246 7.0 13.0 0.00 0.00 0.00 49 1016.9
20260504011533 61 256 6.0 12.0 0.00 0.00 0.00 49 1016.7
20260504010030 62 227 7.0 12.0 0.00 0.00 0.00 48 1016.7
20260504004540 62 266 6.0 12.0 0.00 0.00 0.00 47 1016.6
20260504003029 63 250 7.0 12.0 0.00 0.00 0.00 46 1016.4
20260504001535 64 229 6.0 12.0 0.00 0.00 0.00 45 1016.2
20260504000031 65 244 7.0 13.0 0.00 0.00 0.00 44 1016.1
20260503234534 65 241 7.0 13.0 0.00 0.00 0.00 44 1016.1
20260503233029 66 251 8.0 16.0 0.00 0.00 0.00 44 1016.0
20260503231528 66 227 9.0 14.0 0.00 0.00 0.00 43 1016.2
20260503230030 67 234 7.0 12.0 0.00 0.00 0.00 41 1016.2
20260503224529 67 242 7.0 15.0 0.00 0.08 0.00 41 1016.2
20260503223032 68 233 7.0 13.0 0.00 0.08 0.00 40 1016.3
20260503221535 67 214 5.0 17.0 0.00 0.08 0.00 40 1016.3
20260503220037 67 213 12.0 20.0 0.00 0.08 0.00 39 1016.4
20260503214541 68 192 8.0 15.0 0.00 0.16 0.00 40 1016.3
20260503213034 68 238 8.0 14.0 0.00 0.16 0.00 38 1016.6
20260503211530 68 194 5.0 10.0 0.00 0.16 0.00 40 1016.8
20260503210029 67 224 9.0 15.0 0.00 0.16 0.00 39 1017.0
20260503204531 67 242 4.0 12.0 0.00 0.16 0.00 43 1017.1
20260503203030 67 269 7.0 16.0 0.00 0.16 0.00 40 1017.3
20260503201532 66 313 10.0 19.0 0.00 0.16 0.00 41 1017.6